Date [ISO 8601],Start frequency [kHz],Stop frequency [kHz]
2023/01/01,19800,20000
2023/01/02,4000,4200
2023/01/03,4200,4400
2023/01/04,4400,4600
2023/01/05,4600,4800
2023/01/06,4800,5000
2023/01/07,25000,25200
2023/01/08,25200,25400
2023/01/09,25400,25600
2023/01/10,25600,25800
2023/01/11,25800,26000
2023/01/12,5000,5200
2023/01/13,5200,5400
2023/01/14,5400,5600
2023/01/15,5600,5800
2023/01/16,5800,6000
2023/01/17,14000,14200
2023/01/18,14200,14400
2023/01/19,14400,14600
2023/01/20,14600,14800
2023/01/21,14800,15000
2023/01/22,6000,6200
2023/01/23,6200,6400
2023/01/24,6400,6600
2023/01/25,6600,6800
2023/01/26,6800,7000
2023/01/27,20000,20200
2023/01/28,20200,20400
2023/01/29,20400,20600
2023/01/30,20600,20800
2023/01/31,20800,21000
2023/02/01,7000,7200
2023/02/02,7200,7400
2023/02/03,7400,7600
2023/02/04,7600,7800
2023/02/05,7800,8000
2023/02/06,26000,26200
2023/02/07,26200,26400
2023/02/08,26400,26600
2023/02/09,26600,26800
2023/02/10,26800,27000
2023/02/11,8000,8200
2023/02/12,8200,8400
2023/02/13,8400,8600
2023/02/14,8600,8800
2023/02/15,8800,9000
2023/02/16,15000,15200
2023/02/17,15200,15400
2023/02/18,15400,15600
2023/02/19,15600,15800
2023/02/20,15800,16000
2023/02/21,9000,9200
2023/02/22,9200,9400
2023/02/23,9400,9600
2023/02/24,9600,9800
2023/02/25,9800,10000
2023/02/26,21000,21200
2023/02/27,21200,21400
2023/02/28,21400,21600
2023/03/01,21600,21800
2023/03/02,21800,22000
2023/03/03,10000,10200
2023/03/04,10200,10400
2023/03/05,10400,10600
2023/03/06,10600,10800
2023/03/07,10800,11000
2023/03/08,1600,1800
2023/03/09,1800,2000
2023/03/10,2000,2200
2023/03/11,2200,2400
2023/03/12,2400,2600
2023/03/13,2600,2800
2023/03/14,2800,3000
2023/03/15,16000,16200
2023/03/16,16200,16400
2023/03/17,16400,16600
2023/03/18,16600,16800
2023/03/19,16800,17000
2023/03/20,3000,3200
2023/03/21,3200,3400
2023/03/22,3400,3600
2023/03/23,3600,3800
2023/03/24,3800,4000
2023/03/25,22000,22200
2023/03/26,22200,22400
2023/03/27,22400,22600
2023/03/28,22600,22800
2023/03/29,22800,23000
2023/03/30,4000,4200
2023/03/31,4200,4400
2023/04/01,4400,4600
2023/04/02,4600,4800
2023/04/03,4800,5000
2023/04/04,11000,11200
2023/04/05,11200,11400
2023/04/06,11400,11600
2023/04/07,11600,11800
2023/04/08,11800,12000
2023/04/09,5000,5200
2023/04/10,5200,5400
2023/04/11,5400,5600
2023/04/12,5600,5800
2023/04/13,5800,6000
2023/04/14,17000,17200
2023/04/15,17200,17400
2023/04/16,17400,17600
2023/04/17,17600,17800
2023/04/18,17800,18000
2023/04/19,6000,6200
2023/04/20,6200,6400
2023/04/21,6400,6600
2023/04/22,6600,6800
2023/04/23,6800,7000
2023/04/24,23000,23200
2023/04/25,23200,23400
2023/04/26,23400,23600
2023/04/27,23600,23800
2023/04/28,23800,24000
2023/04/29,7000,7200
2023/04/30,7200,7400
2023/05/01,7400,7600
2023/05/02,7600,7800
2023/05/03,7800,8000
2023/05/04,12000,12200
2023/05/05,12200,12400
2023/05/06,12400,12600
2023/05/07,12600,12800
2023/05/08,12800,13000
2023/05/09,8000,8200
2023/05/10,8200,8400
2023/05/11,8400,8600
2023/05/12,8600,8800
2023/05/13,8800,9000
2023/05/14,18000,18200
2023/05/15,18200,18400
2023/05/16,18400,18600
2023/05/17,18600,18800
2023/05/18,18800,19000
2023/05/19,9000,9200
2023/05/20,9200,9400
2023/05/21,9400,9600
2023/05/22,9600,9800
2023/05/23,9800,10000
2023/05/24,24000,24200
2023/05/25,24200,24400
2023/05/26,24400,24600
2023/05/27,24600,24800
2023/05/28,24800,25000
2023/05/29,1600,1800
2023/05/30,1800,2000
2023/05/31,2000,2200
2023/06/01,2200,2400
2023/06/02,2400,2600
2023/06/03,2600,2800
2023/06/04,2800,3000
2023/06/05,13000,13200
2023/06/06,13200,13400
2023/06/07,13400,13600
2023/06/08,13600,13800
2023/06/09,13800,14000
2023/06/10,3000,3200
2023/06/11,3200,3400
2023/06/12,3400,3600
2023/06/13,3600,3800
2023/06/14,3800,4000
2023/06/15,19000,19200
2023/06/16,19200,19400
2023/06/17,19400,19600
2023/06/18,19600,19800
2023/06/19,19800,20000
2023/06/20,4000,4200
2023/06/21,4200,4400
2023/06/22,4400,4600
2023/06/23,4600,4800
2023/06/24,4800,5000
2023/06/25,25000,25200
2023/06/26,25200,25400
2023/06/27,25400,25600
2023/06/28,25600,25800
2023/06/29,25800,26000
2023/06/30,5000,5200
2023/07/01,5200,5400
2023/07/02,5400,5600
2023/07/03,5600,5800
2023/07/04,5800,6000
2023/07/05,14000,14200
2023/07/06,14200,14400
2023/07/07,14400,14600
2023/07/08,14600,14800
2023/07/09,14800,15000
2023/07/10,6000,6200
2023/07/11,6200,6400
2023/07/12,6400,6600
2023/07/13,6600,6800
2023/07/14,6800,7000
2023/07/15,20000,20200
2023/07/16,20200,20400
2023/07/17,20400,20600
2023/07/18,20600,20800
2023/07/19,20800,21000
2023/07/20,7000,7200
2023/07/21,7200,7400
2023/07/22,7400,7600
2023/07/23,7600,7800
2023/07/24,7800,8000
2023/07/25,26000,26200
2023/07/26,26200,26400
2023/07/27,26400,26600
2023/07/28,26600,26800
2023/07/29,26800,27000
2023/07/30,8000,8200
2023/07/31,8200,8400
2023/08/01,8400,8600
2023/08/02,8600,8800
2023/08/03,8800,9000
2023/08/04,15000,15200
2023/08/05,15200,15400
2023/08/06,15400,15600
2023/08/07,15600,15800
2023/08/08,15800,16000
2023/08/09,9000,9200
2023/08/10,9200,9400
2023/08/11,9400,9600
2023/08/12,9600,9800
2023/08/13,9800,10000
2023/08/14,21000,21200
2023/08/15,21200,21400
2023/08/16,21400,21600
2023/08/17,21600,21800
2023/08/18,21800,22000
2023/08/19,10000,10200
2023/08/20,10200,10400
2023/08/21,10400,10600
2023/08/22,10600,10800
2023/08/23,10800,11000
2023/08/24,1600,1800
2023/08/25,1800,2000
2023/08/26,2000,2200
2023/08/27,2200,2400
2023/08/28,2400,2600
2023/08/29,2600,2800
2023/08/30,2800,3000
2023/08/31,16000,16200
2023/09/01,16200,16400
2023/09/02,16400,16600
2023/09/03,16600,16800
2023/09/04,16800,17000
2023/09/05,3000,3200
2023/09/06,3200,3400
2023/09/07,3400,3600
2023/09/08,3600,3800
2023/09/09,3800,4000
2023/09/10,22000,22200
2023/09/11,22200,22400
2023/09/12,22400,22600
2023/09/13,22600,22800
2023/09/14,22800,23000
2023/09/15,4000,4200
2023/09/16,4200,4400
2023/09/17,4400,4600
2023/09/18,4600,4800
2023/09/19,4800,5000
2023/09/20,11000,11200
2023/09/21,11200,11400
2023/09/22,11400,11600
2023/09/23,11600,11800
2023/09/24,11800,12000
2023/09/25,5000,5200
2023/09/26,5200,5400
2023/09/27,5400,5600
2023/09/28,5600,5800
2023/09/29,5800,6000
2023/09/30,17000,17200
2023/10/01,17200,17400
2023/10/02,17400,17600
2023/10/03,17600,17800
2023/10/04,17800,18000
2023/10/05,6000,6200
2023/10/06,6200,6400
2023/10/07,6400,6600
2023/10/08,6600,6800
2023/10/09,6800,7000
2023/10/10,23000,23200
2023/10/11,23200,23400
2023/10/12,23400,23600
2023/10/13,23600,23800
2023/10/14,23800,24000
2023/10/15,7000,7200
2023/10/16,7200,7400
2023/10/17,7400,7600
2023/10/18,7600,7800
2023/10/19,7800,8000
2023/10/20,12000,12200
2023/10/21,12200,12400
2023/10/22,12400,12600
2023/10/23,12600,12800
2023/10/24,12800,13000
2023/10/25,8000,8200
2023/10/26,8200,8400
2023/10/27,8400,8600
2023/10/28,8600,8800
2023/10/29,8800,9000
2023/10/30,18000,18200
2023/10/31,18200,18400
2023/11/01,18400,18600
2023/11/02,18600,18800
2023/11/03,18800,19000
2023/11/04,9000,9200
2023/11/05,9200,9400
2023/11/06,9400,9600
2023/11/07,9600,9800
2023/11/08,9800,10000
2023/11/09,24000,24200
2023/11/10,24200,24400
2023/11/11,24400,24600
2023/11/12,24600,24800
2023/11/13,24800,25000
2023/11/14,1600,1800
2023/11/15,1800,2000
2023/11/16,2000,2200
2023/11/17,2200,2400
2023/11/18,2400,2600
2023/11/19,2600,2800
2023/11/20,2800,3000
2023/11/21,13000,13200
2023/11/22,13200,13400
2023/11/23,13400,13600
2023/11/24,13600,13800
2023/11/25,13800,14000
2023/11/26,3000,3200
2023/11/27,3200,3400
2023/11/28,3400,3600
2023/11/29,3600,3800
2023/11/30,3800,4000
2023/12/01,19000,19200
2023/12/02,19200,19400
2023/12/03,19400,19600
2023/12/04,19600,19800
2023/12/05,19800,20000
2023/12/06,4000,4200
2023/12/07,4200,4400
2023/12/08,4400,4600
2023/12/09,4600,4800
2023/12/10,4800,5000
2023/12/11,25000,25200
2023/12/12,25200,25400
2023/12/13,25400,25600
2023/12/14,25600,25800
2023/12/15,25800,26000
2023/12/16,5000,5200
2023/12/17,5200,5400
2023/12/18,5400,5600
2023/12/19,5600,5800
2023/12/20,5800,6000
2023/12/21,14000,14200
2023/12/22,14200,14400
2023/12/23,14400,14600
2023/12/24,14600,14800
2023/12/25,14800,15000
2023/12/26,6000,6200
2023/12/27,6200,6400
2023/12/28,6400,6600
2023/12/29,6600,6800
2023/12/30,6800,7000
2023/12/31,20000,20200
2024/01/01,20200,20400
2024/01/02,20400,20600
2024/01/03,20600,20800
2024/01/04,20800,21000
2024/01/05,7000,7200
2024/01/06,7200,7400
2024/01/07,7400,7600
2024/01/08,7600,7800
2024/01/09,7800,8000
2024/01/10,26000,26200
2024/01/11,26200,26400
2024/01/12,26400,26600
2024/01/13,26600,26800
2024/01/14,26800,27000
2024/01/15,8000,8200
2024/01/16,8200,8400
2024/01/17,8400,8600
2024/01/18,8600,8800
2024/01/19,8800,9000
2024/01/20,15000,15200
2024/01/21,15200,15400
2024/01/22,15400,15600
2024/01/23,15600,15800
2024/01/24,15800,16000
2024/01/25,9000,9200
2024/01/26,9200,9400
2024/01/27,9400,9600
2024/01/28,9600,9800
2024/01/29,9800,10000
2024/01/30,21000,21200
2024/01/31,21200,21400
2024/02/01,21400,21600
2024/02/02,21600,21800
2024/02/03,21800,22000
2024/02/04,10000,10200
2024/02/05,10200,10400
2024/02/06,10400,10600
2024/02/07,10600,10800
2024/02/08,10800,11000
2024/02/09,1600,1800
2024/02/10,1800,2000
2024/02/11,2000,2200
2024/02/12,2200,2400
2024/02/13,2400,2600
2024/02/14,2600,2800
2024/02/15,2800,3000
2024/02/16,16000,16200
2024/02/17,16200,16400
2024/02/18,16400,16600
2024/02/19,16600,16800
2024/02/20,16800,17000
2024/02/21,3000,3200
2024/02/22,3200,3400
2024/02/23,3400,3600
2024/02/24,3600,3800
2024/02/25,3800,4000
2024/02/26,22000,22200
2024/02/27,22200,22400
2024/02/28,22400,22600
2024/02/29,22600,22800
2024/03/01,22800,23000
2024/03/02,4000,4200
2024/03/03,4200,4400
2024/03/04,4400,4600
2024/03/05,4600,4800
2024/03/06,4800,5000
2024/03/07,11000,11200
2024/03/08,11200,11400
2024/03/09,11400,11600
2024/03/10,11600,11800
2024/03/11,11800,12000
2024/03/12,5000,5200
2024/03/13,5200,5400
2024/03/14,5400,5600
2024/03/15,5600,5800
2024/03/16,5800,6000
2024/03/17,17000,17200
2024/03/18,17200,17400
2024/03/19,17400,17600
2024/03/20,17600,17800
2024/03/21,17800,18000
2024/03/22,6000,6200
2024/03/23,6200,6400
2024/03/24,6400,6600
2024/03/25,6600,6800
2024/03/26,6800,7000
2024/03/27,23000,23200
2024/03/28,23200,23400
2024/03/29,23400,23600
2024/03/30,23600,23800
2024/03/31,23800,24000
2024/04/01,7000,7200
2024/04/02,7200,7400
2024/04/03,7400,7600
2024/04/04,7600,7800
2024/04/05,7800,8000
2024/04/06,12000,12200
2024/04/07,12200,12400
2024/04/08,12400,12600
2024/04/09,12600,12800
2024/04/10,12800,13000
2024/04/11,8000,8200
2024/04/12,8200,8400
2024/04/13,8400,8600
2024/04/14,8600,8800
2024/04/15,8800,9000
2024/04/16,18000,18200
2024/04/17,18200,18400
2024/04/18,18400,18600
2024/04/19,18600,18800
2024/04/20,18800,19000
2024/04/21,9000,9200
2024/04/22,9200,9400
2024/04/23,9400,9600
2024/04/24,9600,9800
2024/04/25,9800,10000
2024/04/26,24000,24200
2024/04/27,24200,24400
2024/04/28,24400,24600
2024/04/29,24600,24800
2024/04/30,24800,25000
2024/05/01,1600,1800
2024/05/02,1800,2000
2024/05/03,2000,2200
2024/05/04,2200,2400
2024/05/05,2400,2600
2024/05/06,2600,2800
2024/05/07,2800,3000
2024/05/08,13000,13200
2024/05/09,13200,13400
2024/05/10,13400,13600
2024/05/11,13600,13800
2024/05/12,13800,14000
2024/05/13,3000,3200
2024/05/14,3200,3400
2024/05/15,3400,3600
2024/05/16,3600,3800
2024/05/17,3800,4000
2024/05/18,19000,19200
2024/05/19,19200,19400
2024/05/20,19400,19600
2024/05/21,19600,19800
2024/05/22,19800,20000
2024/05/23,4000,4200
2024/05/24,4200,4400
2024/05/25,4400,4600
2024/05/26,4600,4800
2024/05/27,4800,5000
2024/05/28,25000,25200
2024/05/29,25200,25400
2024/05/30,25400,25600
2024/05/31,25600,25800
2024/06/01,25800,26000
2024/06/02,5000,5200
2024/06/03,5200,5400
2024/06/04,5400,5600
2024/06/05,5600,5800
2024/06/06,5800,6000
2024/06/07,14000,14200
2024/06/08,14200,14400
2024/06/09,14400,14600
2024/06/10,14600,14800
2024/06/11,14800,15000
2024/06/12,6000,6200
2024/06/13,6200,6400
2024/06/14,6400,6600
2024/06/15,6600,6800
2024/06/16,6800,7000
2024/06/17,20000,20200
2024/06/18,20200,20400
2024/06/19,20400,20600
2024/06/20,20600,20800
2024/06/21,20800,21000
2024/06/22,7000,7200
2024/06/23,7200,7400
2024/06/24,7400,7600
2024/06/25,7600,7800
2024/06/26,7800,8000
2024/06/27,26000,26200
2024/06/28,26200,26400
2024/06/29,26400,26600
2024/06/30,26600,26800
2024/07/01,26800,27000
2024/07/02,8000,8200
2024/07/03,8200,8400
2024/07/04,8400,8600
2024/07/05,8600,8800
2024/07/06,8800,9000
2024/07/07,15000,15200
2024/07/08,15200,15400
2024/07/09,15400,15600
2024/07/10,15600,15800
2024/07/11,15800,16000
2024/07/12,9000,9200
2024/07/13,9200,9400
2024/07/14,9400,9600
2024/07/15,9600,9800
2024/07/16,9800,10000
2024/07/17,21000,21200
2024/07/18,21200,21400
2024/07/19,21400,21600
2024/07/20,21600,21800
2024/07/21,21800,22000
2024/07/22,10000,10200
2024/07/23,10200,10400
2024/07/24,10400,10600
2024/07/25,10600,10800
2024/07/26,10800,11000
2024/07/27,1600,1800
2024/07/28,1800,2000
2024/07/29,2000,2200
2024/07/30,2200,2400
2024/07/31,2400,2600
2024/08/01,2600,2800
2024/08/02,2800,3000
2024/08/03,16000,16200
2024/08/04,16200,16400
2024/08/05,16400,16600
2024/08/06,16600,16800
2024/08/07,16800,17000
2024/08/08,3000,3200
2024/08/09,3200,3400
2024/08/10,3400,3600
2024/08/11,3600,3800
2024/08/12,3800,4000
2024/08/13,22000,22200
2024/08/14,22200,22400
2024/08/15,22400,22600
2024/08/16,22600,22800
2024/08/17,22800,23000
2024/08/18,4000,4200
2024/08/19,4200,4400
2024/08/20,4400,4600
2024/08/21,4600,4800
2024/08/22,4800,5000
2024/08/23,11000,11200
2024/08/24,11200,11400
2024/08/25,11400,11600
2024/08/26,11600,11800
2024/08/27,11800,12000
2024/08/28,5000,5200
2024/08/29,5200,5400
2024/08/30,5400,5600
2024/08/31,5600,5800
2024/09/01,5800,6000
2024/09/02,17000,17200
2024/09/03,17200,17400
2024/09/04,17400,17600
2024/09/05,17600,17800
2024/09/06,17800,18000
2024/09/07,6000,6200
2024/09/08,6200,6400
2024/09/09,6400,6600
2024/09/10,6600,6800
2024/09/11,6800,7000
2024/09/12,23000,23200
2024/09/13,23200,23400
2024/09/14,23400,23600
2024/09/15,23600,23800
2024/09/16,23800,24000
2024/09/17,7000,7200
2024/09/18,7200,7400
2024/09/19,7400,7600
2024/09/20,7600,7800
2024/09/21,7800,8000
2024/09/22,12000,12200
2024/09/23,12200,12400
2024/09/24,12400,12600
2024/09/25,12600,12800
2024/09/26,12800,13000
2024/09/27,8000,8200
2024/09/28,8200,8400
2024/09/29,8400,8600
2024/09/30,8600,8800
2024/10/01,8800,9000
2024/10/02,18000,18200
2024/10/03,18200,18400
2024/10/04,18400,18600
2024/10/05,18600,18800
2024/10/06,18800,19000
2024/10/07,9000,9200
2024/10/08,9200,9400
2024/10/09,9400,9600
2024/10/10,9600,9800
2024/10/11,9800,10000
2024/10/12,24000,24200
2024/10/13,24200,24400
2024/10/14,24400,24600
2024/10/15,24600,24800
2024/10/16,24800,25000
2024/10/17,1600,1800
2024/10/18,1800,2000
2024/10/19,2000,2200
2024/10/20,2200,2400
2024/10/21,2400,2600
2024/10/22,2600,2800
2024/10/23,2800,3000
2024/10/24,13000,13200
2024/10/25,13200,13400
2024/10/26,13400,13600
2024/10/27,13600,13800
2024/10/28,13800,14000
2024/10/29,3000,3200
2024/10/30,3200,3400
2024/10/31,3400,3600
2024/11/01,3600,3800
2024/11/02,3800,4000
2024/11/03,19000,19200
2024/11/04,19200,19400
2024/11/05,19400,19600
2024/11/06,19600,19800
2024/11/07,19800,20000
2024/11/08,4000,4200
2024/11/09,4200,4400
2024/11/10,4400,4600
2024/11/11,4600,4800
2024/11/12,4800,5000
2024/11/13,25000,25200
2024/11/14,25200,25400
2024/11/15,25400,25600
2024/11/16,25600,25800
2024/11/17,25800,26000
2024/11/18,5000,5200
2024/11/19,5200,5400
2024/11/20,5400,5600
2024/11/21,5600,5800
2024/11/22,5800,6000
2024/11/23,14000,14200
2024/11/24,14200,14400
2024/11/25,14400,14600
2024/11/26,14600,14800
2024/11/27,14800,15000
2024/11/28,6000,6200
2024/11/29,6200,6400
2024/11/30,6400,6600
2024/12/01,6600,6800
2024/12/02,6800,7000
2024/12/03,20000,20200
2024/12/04,20200,20400
2024/12/05,20400,20600
2024/12/06,20600,20800
2024/12/07,20800,21000
2024/12/08,7000,7200
2024/12/09,7200,7400
2024/12/10,7400,7600
2024/12/11,7600,7800
2024/12/12,7800,8000
2024/12/13,26000,26200
2024/12/14,26200,26400
2024/12/15,26400,26600
2024/12/16,26600,26800
2024/12/17,26800,27000
2024/12/18,8000,8200
2024/12/19,8200,8400
2024/12/20,8400,8600
2024/12/21,8600,8800
2024/12/22,8800,9000
2024/12/23,15000,15200
2024/12/24,15200,15400
2024/12/25,15400,15600
2024/12/26,15600,15800
2024/12/27,15800,16000
2024/12/28,9000,9200
2024/12/29,9200,9400
2024/12/30,9400,9600
2024/12/31,9600,9800
2025/01/01,9800,10000
2025/01/02,21000,21200
2025/01/03,21200,21400
2025/01/04,21400,21600
2025/01/05,21600,21800
2025/01/06,21800,22000
2025/01/07,10000,10200
2025/01/08,10200,10400
2025/01/09,10400,10600
2025/01/10,10600,10800
2025/01/11,10800,11000
2025/01/12,1600,1800
2025/01/13,1800,2000
2025/01/14,2000,2200
2025/01/15,2200,2400
2025/01/16,2400,2600
2025/01/17,2600,2800
2025/01/18,2800,3000
2025/01/19,16000,16200
2025/01/20,16200,16400
2025/01/21,16400,16600
2025/01/22,16600,16800
2025/01/23,16800,17000
2025/01/24,3000,3200
2025/01/25,3200,3400
2025/01/26,3400,3600
2025/01/27,3600,3800
2025/01/28,3800,4000
2025/01/29,22000,22200
2025/01/30,22200,22400
2025/01/31,22400,22600
2025/02/01,22600,22800
2025/02/02,22800,23000
2025/02/03,4000,4200
2025/02/04,4200,4400
2025/02/05,4400,4600
2025/02/06,4600,4800
2025/02/07,4800,5000
2025/02/08,11000,11200
2025/02/09,11200,11400
2025/02/10,11400,11600
2025/02/11,11600,11800
2025/02/12,11800,12000
2025/02/13,5000,5200
2025/02/14,5200,5400
2025/02/15,5400,5600
2025/02/16,5600,5800
2025/02/17,5800,6000
2025/02/18,17000,17200
2025/02/19,17200,17400
2025/02/20,17400,17600
2025/02/21,17600,17800
2025/02/22,17800,18000
2025/02/23,6000,6200
2025/02/24,6200,6400
2025/02/25,6400,6600
2025/02/26,6600,6800
2025/02/27,6800,7000
2025/02/28,23000,23200
2025/03/01,23200,23400
2025/03/02,23400,23600
2025/03/03,23600,23800
2025/03/04,23800,24000
2025/03/05,7000,7200
2025/03/06,7200,7400
2025/03/07,7400,7600
2025/03/08,7600,7800
2025/03/09,7800,8000
2025/03/10,12000,12200
2025/03/11,12200,12400
2025/03/12,12400,12600
2025/03/13,12600,12800
2025/03/14,12800,13000
2025/03/15,8000,8200
2025/03/16,8200,8400
2025/03/17,8400,8600
2025/03/18,8600,8800
2025/03/19,8800,9000
2025/03/20,18000,18200
2025/03/21,18200,18400
2025/03/22,18400,18600
2025/03/23,18600,18800
2025/03/24,18800,19000
2025/03/25,9000,9200
2025/03/26,9200,9400
2025/03/27,9400,9600
2025/03/28,9600,9800
2025/03/29,9800,10000
2025/03/30,24000,24200
2025/03/31,24200,24400
2025/04/01,24400,24600
2025/04/02,24600,24800
2025/04/03,24800,25000
2025/04/04,1600,1800
2025/04/05,1800,2000
2025/04/06,2000,2200
2025/04/07,2200,2400
2025/04/08,2400,2600
2025/04/09,2600,2800
2025/04/10,2800,3000
2025/04/11,13000,13200
2025/04/12,13200,13400
2025/04/13,13400,13600
2025/04/14,13600,13800
2025/04/15,13800,14000
2025/04/16,3000,3200
2025/04/17,3200,3400
2025/04/18,3400,3600
2025/04/19,3600,3800
2025/04/20,3800,4000
2025/04/21,19000,19200
2025/04/22,19200,19400
2025/04/23,19400,19600
2025/04/24,19600,19800
2025/04/25,19800,20000
2025/04/26,4000,4200
2025/04/27,4200,4400
2025/04/28,4400,4600
2025/04/29,4600,4800
2025/04/30,4800,5000
2025/05/01,25000,25200
2025/05/02,25200,25400
2025/05/03,25400,25600
2025/05/04,25600,25800
2025/05/05,25800,26000
2025/05/06,5000,5200
2025/05/07,5200,5400
2025/05/08,5400,5600
2025/05/09,5600,5800
2025/05/10,5800,6000
2025/05/11,14000,14200
2025/05/12,14200,14400
2025/05/13,14400,14600
2025/05/14,14600,14800
2025/05/15,14800,15000
2025/05/16,6000,6200
2025/05/17,6200,6400
2025/05/18,6400,6600
2025/05/19,6600,6800
2025/05/20,6800,7000
2025/05/21,20000,20200
2025/05/22,20200,20400
2025/05/23,20400,20600
2025/05/24,20600,20800
2025/05/25,20800,21000
2025/05/26,7000,7200
2025/05/27,7200,7400
2025/05/28,7400,7600
2025/05/29,7600,7800
2025/05/30,7800,8000
2025/05/31,26000,26200
2025/06/01,26200,26400
2025/06/02,26400,26600
2025/06/03,26600,26800
2025/06/04,26800,27000
2025/06/05,8000,8200
2025/06/06,8200,8400
2025/06/07,8400,8600
2025/06/08,8600,8800
2025/06/09,8800,9000
2025/06/10,15000,15200
2025/06/11,15200,15400
2025/06/12,15400,15600
2025/06/13,15600,15800
2025/06/14,15800,16000
2025/06/15,9000,9200
2025/06/16,9200,9400
2025/06/17,9400,9600
2025/06/18,9600,9800
2025/06/19,9800,10000
2025/06/20,21000,21200
2025/06/21,21200,21400
2025/06/22,21400,21600
2025/06/23,21600,21800
2025/06/24,21800,22000
2025/06/25,10000,10200
2025/06/26,10200,10400
2025/06/27,10400,10600
2025/06/28,10600,10800
2025/06/29,10800,11000
2025/06/30,1600,1800
2025/07/01,1800,2000
2025/07/02,2000,2200
2025/07/03,2200,2400
2025/07/04,2400,2600
2025/07/05,2600,2800
2025/07/06,2800,3000
2025/07/07,16000,16200
2025/07/08,16200,16400
2025/07/09,16400,16600
2025/07/10,16600,16800
2025/07/11,16800,17000
2025/07/12,3000,3200
2025/07/13,3200,3400
2025/07/14,3400,3600
2025/07/15,3600,3800
2025/07/16,3800,4000
2025/07/17,22000,22200
2025/07/18,22200,22400
2025/07/19,22400,22600
2025/07/20,22600,22800
2025/07/21,22800,23000
2025/07/22,4000,4200
2025/07/23,4200,4400
2025/07/24,4400,4600
2025/07/25,4600,4800
2025/07/26,4800,5000
2025/07/27,11000,11200
2025/07/28,11200,11400
2025/07/29,11400,11600
2025/07/30,11600,11800
2025/07/31,11800,12000
2025/08/01,5000,5200
2025/08/02,5200,5400
2025/08/03,5400,5600
2025/08/04,5600,5800
2025/08/05,5800,6000
2025/08/06,17000,17200
2025/08/07,17200,17400
2025/08/08,17400,17600
2025/08/09,17600,17800
2025/08/10,17800,18000
2025/08/11,6000,6200
2025/08/12,6200,6400
2025/08/13,6400,6600
2025/08/14,6600,6800
2025/08/15,6800,7000
2025/08/16,23000,23200
2025/08/17,23200,23400
2025/08/18,23400,23600
2025/08/19,23600,23800
2025/08/20,23800,24000
2025/08/21,7000,7200
2025/08/22,7200,7400
2025/08/23,7400,7600
2025/08/24,7600,7800
2025/08/25,7800,8000
2025/08/26,12000,12200
2025/08/27,12200,12400
2025/08/28,12400,12600
2025/08/29,12600,12800
2025/08/30,12800,13000
2025/08/31,8000,8200
2025/09/01,8200,8400
2025/09/02,8400,8600
2025/09/03,8600,8800
2025/09/04,8800,9000
2025/09/05,18000,18200
2025/09/06,18200,18400
2025/09/07,18400,18600
2025/09/08,18600,18800
2025/09/09,18800,19000
2025/09/10,9000,9200
2025/09/11,9200,9400
2025/09/12,9400,9600
2025/09/13,9600,9800
2025/09/14,9800,10000
2025/09/15,24000,24200
2025/09/16,24200,24400
2025/09/17,24400,24600
2025/09/18,24600,24800
2025/09/19,24800,25000
2025/09/20,1600,1800
2025/09/21,1800,2000
2025/09/22,2000,2200
2025/09/23,2200,2400
2025/09/24,2400,2600
2025/09/25,2600,2800
2025/09/26,2800,3000
2025/09/27,13000,13200
2025/09/28,13200,13400
2025/09/29,13400,13600
2025/09/30,13600,13800
2025/10/01,13800,14000
2025/10/02,3000,3200
2025/10/03,3200,3400
2025/10/04,3400,3600
2025/10/05,3600,3800
2025/10/06,3800,4000
2025/10/07,19000,19200
2025/10/08,19200,19400
2025/10/09,19400,19600
2025/10/10,19600,19800
2025/10/11,19800,20000
2025/10/12,4000,4200
2025/10/13,4200,4400
2025/10/14,4400,4600
2025/10/15,4600,4800
2025/10/16,4800,5000
2025/10/17,25000,25200
2025/10/18,25200,25400
2025/10/19,25400,25600
2025/10/20,25600,25800
2025/10/21,25800,26000
2025/10/22,5000,5200
2025/10/23,5200,5400
2025/10/24,5400,5600
2025/10/25,5600,5800
2025/10/26,5800,6000
2025/10/27,14000,14200
2025/10/28,14200,14400
2025/10/29,14400,14600
2025/10/30,14600,14800
2025/10/31,14800,15000
2025/11/01,6000,6200
2025/11/02,6200,6400
2025/11/03,6400,6600
2025/11/04,6600,6800
2025/11/05,6800,7000
2025/11/06,20000,20200
2025/11/07,20200,20400
2025/11/08,20400,20600
2025/11/09,20600,20800
2025/11/10,20800,21000
2025/11/11,7000,7200
2025/11/12,7200,7400
2025/11/13,7400,7600
2025/11/14,7600,7800
2025/11/15,7800,8000
2025/11/16,26000,26200
2025/11/17,26200,26400
2025/11/18,26400,26600
2025/11/19,26600,26800
2025/11/20,26800,27000
2025/11/21,8000,8200
2025/11/22,8200,8400
2025/11/23,8400,8600
2025/11/24,8600,8800
2025/11/25,8800,9000
2025/11/26,15000,15200
2025/11/27,15200,15400
2025/11/28,15400,15600
2025/11/29,15600,15800
2025/11/30,15800,16000
2025/12/01,9000,9200
2025/12/02,9200,9400
2025/12/03,9400,9600
2025/12/04,9600,9800
2025/12/05,9800,10000
2025/12/06,21000,21200
2025/12/07,21200,21400
2025/12/08,21400,21600
2025/12/09,21600,21800
2025/12/10,21800,22000
2025/12/11,10000,10200
2025/12/12,10200,10400
2025/12/13,10400,10600
2025/12/14,10600,10800
2025/12/15,10800,11000
2025/12/16,1600,1800
2025/12/17,1800,2000
2025/12/18,2000,2200
2025/12/19,2200,2400
2025/12/20,2400,2600
2025/12/21,2600,2800
2025/12/22,2800,3000